Location: *
(50.5492°N, 7.7469°E)
Time: 16:13:15
(UTC+00:00)

Lacrosse 5 - Pass Details

Date: 21 October 2019
Orbit: 715 x 724 km, 57.0° (Epoch: 20 November)

Event Time Altitude Azimuth Distance (km) Brightness Sun altitude
Rises 18:16:43 0° 301° (WNW) 3,125 6.3 -18.3°
Reaches altitude 10° 18:19:11 10° 295° (WNW) 2,202 5.5 -18.7°
Maximum altitude 18:23:58 44° 225° (SW) 988 2.8 -19.5°
Enters shadow 18:27:30 17° 160° (SSE) 1,753 3.6 -20.0°
